GW5991 Weather Reports


time (UTC)temp
C
wind
direction
speed
KPH
gust
KPH
rain 1hr
cm
rain 24hr
cm
rain mn
cm
humidity
%
barometer
mb
20260906231444 17 300 0.0 0.0 0.00 0.00 0.00 73 1017.3
20260906230944 17 217 0.0 0.0 0.00 0.00 0.00 73 1017.4
20260906230438 17 102 0.0 0.0 0.00 0.00 0.00 73 1017.2
20260906225937 17 19 0.0 0.0 0.00 0.00 0.00 75 1017.3
20260906225432 17 135 0.0 0.0 0.00 0.00 0.00 77 1017.3
20260906224928 16 175 0.0 0.0 0.00 0.00 0.00 76 1017.2
20260906224425 16 259 0.0 0.0 0.00 0.00 0.00 75 1017.3
20260906223920 16 263 0.0 0.0 0.00 0.00 0.00 74 1017.1
20260906223416 16 295 0.0 0.0 0.00 0.00 0.00 77 1017.2
20260906222914 16 227 0.0 0.0 0.00 0.00 0.00 73 1017.2
20260906222414 16 106 0.0 0.0 0.00 0.00 0.00 75 1017.0
20260906221911 16 325 0.0 0.0 0.00 0.00 0.00 76 1017.1
20260906221411 16 21 0.0 0.0 0.00 0.00 0.00 75 1016.9
20260906220906 16 218 0.0 0.0 0.00 0.00 0.00 76 1017.3
20260906220402 16 206 0.0 0.0 0.00 0.00 0.00 76 1017.1
20260906215900 16 192 0.0 0.0 0.00 0.00 0.00 76 1017.3
20260906215355 16 136 0.0 0.0 0.00 0.00 0.00 76 1017.3
20260906214854 16 138 0.0 0.0 0.00 0.00 0.00 76 1017.2
20260906214353 16 150 0.0 0.0 0.00 0.00 0.00 76 1017.2
20260906213852 16 172 0.0 0.0 0.00 0.00 0.00 76 1017.3
20260906213347 16 238 0.0 0.0 0.00 0.00 0.00 76 1017.4
20260906212844 16 80 0.0 0.0 0.00 0.00 0.00 76 1017.3
20260906212340 16 209 0.0 0.0 0.00 0.00 0.00 76 1017.4
20260906211840 16 11 0.0 0.0 0.00 0.00 0.00 77 1017.2
20260906211335 16 246 0.0 0.0 0.00 0.00 0.00 77 1017.2
20260906210830 16 245 0.0 0.0 0.00 0.00 0.00 77 1017.4
20260906210330 16 174 0.0 0.0 0.00 0.00 0.00 77 1017.4
20260906205825 16 231 0.0 0.0 0.00 0.00 0.00 77 1017.4
20260906205322 16 316 0.0 0.0 0.00 0.00 0.00 77 1017.3
20260906204817 16 294 0.0 0.0 0.00 0.00 0.00 78 1017.4
20260906204316 16 160 0.0 0.0 0.00 0.00 0.00 78 1017.5
20260906203815 16 331 0.0 0.0 0.00 0.00 0.00 78 1017.3
20260906203312 16 246 0.0 0.0 0.00 0.00 0.00 77 1017.5
20260906202808 16 86 0.0 0.0 0.00 0.00 0.00 77 1017.4
20260906202307 16 220 0.0 0.0 0.00 0.00 0.00 78 1017.5
20260906201802 16 142 0.0 0.0 0.00 0.00 0.00 77 1017.3
20260906201302 16 279 0.0 0.0 0.00 0.00 0.00 77 1017.4
20260906200758 16 228 0.0 0.0 0.00 0.00 0.00 76 1017.4
20260906200254 16 352 0.0 0.0 0.00 0.00 0.00 77 1017.4
20260906195748 16 268 0.0 0.0 0.00 0.00 0.00 77 1017.2
20260906195245 16 48 0.0 0.0 0.00 0.00 0.00 79 1017.4
20260906194741 16 215 0.0 0.0 0.00 0.00 0.00 78 1017.5
20260906194236 16 0 0.0 0.0 0.00 0.00 0.00 77 1017.4
20260906193731 16 235 0.0 0.0 0.00 0.00 0.00 76 1017.3
20260906193231 16 84 0.0 0.0 0.00 0.00 0.00 79 1017.5
20260906192728 16 299 0.0 0.0 0.00 0.00 0.00 78 1017.5
20260906192222 16 224 0.0 0.0 0.00 0.00 0.00 77 1017.5
20260906191721 16 359 0.0 0.0 0.00 0.00 0.00 78 1017.4
20260906191222 16 98 0.0 0.0 0.00 0.00 0.00 77 1017.4
20260906190721 16 120 0.0 0.0 0.00 0.00 0.00 77 1017.4
20260906190216 16 17 0.0 0.0 0.00 0.00 0.00 77 1017.3
20260906185715 16 34 0.0 0.0 0.00 0.00 0.00 80 1017.4
20260906185214 16 129 0.0 0.0 0.00 0.00 0.00 79 1017.3
20260906184709 16 196 0.0 0.0 0.00 0.00 0.00 77 1017.6
20260906184204 16 257 0.0 0.0 0.00 0.00 0.00 76 1017.4
20260906183700 16 57 0.0 0.0 0.00 0.00 0.00 79 1017.4
20260906183156 15 346 0.0 0.0 0.00 0.00 0.00 78 1017.3
20260906182656 15 359 0.0 0.0 0.00 0.00 0.00 78 1017.4
20260906182152 15 190 0.0 0.0 0.00 0.00 0.00 79 1017.4
20260906181647 15 268 0.0 0.0 0.00 0.00 0.00 81 1017.3
20260906181143 14 229 0.0 0.0 0.00 0.00 0.00 85 1017.4
20260906180638 14 274 0.0 0.0 0.00 0.00 0.00 84 1017.6
20260906180138 13 178 0.0 0.0 0.00 0.00 0.00 84 1017.8
20260906175637 13 17 0.0 0.0 0.00 0.00 0.00 84 1017.6
20260906175132 13 335 0.0 0.0 0.00 0.00 0.00 85 1017.5
20260906174630 13 330 0.0 0.0 0.00 0.00 0.00 86 1017.6
20260906174125 13 348 0.0 0.0 0.00 0.00 0.00 87 1017.8
20260906173620 13 201 0.0 0.0 0.00 0.00 0.00 87 1017.7
20260906173116 13 171 0.0 0.0 0.00 0.00 0.00 87 1017.7
20260906172615 13 219 0.0 0.0 0.00 0.00 0.00 88 1017.7
20260906172111 12 34 0.0 0.0 0.00 0.00 0.00 90 1017.7
20260906171610 12 90 0.0 0.0 0.00 0.00 0.00 91 1017.6
20260906171106 12 262 0.0 0.0 0.00 0.00 0.00 92 1017.5
20260906170602 11 60 0.0 0.0 0.00 0.00 0.00 92 1017.7
20260906165559 11 124 0.0 0.0 0.00 0.00 0.00 96 1017.7
20260906165059 11 295 0.0 0.0 0.00 0.00 0.00 97 1017.6
20260906164558 11 145 0.0 0.0 0.00 0.00 0.00 97 1017.8
20260906164054 11 267 0.0 0.0 0.00 0.00 0.00 97 1017.9
20260906163549 11 67 0.0 0.0 0.00 0.00 0.00 97 1017.9
20260906163044 11 78 0.0 0.0 0.00 0.00 0.00 97 1017.9
20260906162542 10 79 0.0 0.0 0.00 0.00 0.00 97 1018.2
20260906162037 10 11 0.0 0.0 0.00 0.00 0.00 97 1017.8
20260906161532 10 233 0.0 0.0 0.00 0.00 0.00 97 1018.0
20260906161030 10 310 0.0 0.0 0.00 0.00 0.00 97 1017.9
20260906160530 9 94 0.0 0.0 0.00 0.00 0.00 97 1018.1
20260906160028 8 94 0.0 0.0 0.00 0.00 0.00 97 1018.0
20260906155526 8 94 0.0 0.0 0.00 0.00 0.00 97 1018.0
20260906155022 8 187 0.0 0.0 0.00 0.00 0.00 97 1018.1
20260906154517 8 187 0.0 0.0 0.00 0.00 0.00 97 1018.2
20260906154016 8 218 0.0 0.0 0.00 0.00 0.00 97 1018.1
20260906153515 8 261 0.0 0.0 0.00 0.00 0.00 97 1018.1
20260906153011 8 261 0.0 0.0 0.00 0.00 0.00 97 1018.1
20260906152505 8 261 0.0 0.0 0.00 0.00 0.00 97 1018.1
20260906152004 8 261 0.0 0.0 0.00 0.00 0.00 97 1018.1
20260906151500 8 261 0.0 0.0 0.00 0.00 0.00 97 1018.0
20260906150955 8 261 0.0 0.0 0.00 0.00 0.00 97 1018.0
20260906150450 8 261 0.0 0.0 0.00 0.00 0.00 97 1018.1
20260906145949 7 261 0.0 0.0 0.00 0.00 0.00 97 1018.1
20260906145444 7 261 0.0 0.0 0.00 0.00 0.00 97 1018.0
20260906144943 7 261 0.0 0.0 0.00 0.00 0.00 97 1017.9
20260906144438 7 261 0.0 0.0 0.00 0.00 0.00 97 1018.1
20260906143934 7 261 0.0 0.0 0.00 0.00 0.00 97 1017.9
20260906143429 7 261 0.0 0.0 0.00 0.00 0.00 97 1017.9
20260906142925 7 261 0.0 0.0 0.00 0.00 0.00 97 1018.0
20260906142425 7 261 0.0 0.0 0.00 0.00 0.00 97 1017.9
20260906141920 7 196 0.0 0.0 0.00 0.00 0.00 96 1018.0
20260906141420 7 197 0.0 0.0 0.00 0.00 0.00 96 1018.0
20260906140914 7 197 0.0 0.0 0.00 0.00 0.00 96 1017.8
20260906140409 7 197 0.0 0.0 0.00 0.00 0.00 96 1017.9
20260906135907 7 197 0.0 0.0 0.00 0.00 0.00 96 1018.0
20260906135406 7 197 0.0 0.0 0.00 0.00 0.00 96 1017.8
20260906134902 7 197 0.0 0.0 0.00 0.00 0.00 96 1018.0
20260906134357 7 216 0.0 0.0 0.00 0.00 0.00 96 1017.8
20260906133852 7 216 0.0 0.0 0.00 0.00 0.00 96 1017.7
20260906133348 7 258 0.0 0.0 0.00 0.00 0.00 96 1017.6
20260906132843 7 258 0.0 0.0 0.00 0.00 0.00 96 1017.7
20260906132338 8 258 0.0 0.0 0.00 0.00 0.00 96 1017.5
20260906131833 8 258 0.0 0.0 0.00 0.00 0.00 96 1017.4
20260906131328 8 258 0.0 0.0 0.00 0.00 0.00 96 1017.4
20260906130825 8 258 0.0 0.0 0.00 0.00 0.00 96 1017.5
20260906130324 8 259 0.0 0.0 0.00 0.00 0.00 96 1017.4
20260906125823 8 259 0.0 0.0 0.00 0.00 0.00 96 1017.3
20260906125321 8 269 0.0 0.0 0.00 0.00 0.00 96 1017.6
20260906124816 8 271 0.0 0.0 0.00 0.00 0.00 96 1017.4
20260906124312 8 281 0.0 0.0 0.00 0.00 0.00 96 1017.2
20260906123810 8 324 0.0 0.0 0.00 0.00 0.00 96 1017.3
20260906123306 8 324 0.0 0.0 0.00 0.00 0.00 96 1017.4
20260906122805 8 325 0.0 0.0 0.00 0.00 0.00 96 1017.4
20260906122301 8 325 0.0 0.0 0.00 0.00 0.00 96 1017.4
20260906121757 8 325 0.0 0.0 0.00 0.00 0.00 96 1017.4
20260906121253 8 325 0.0 0.0 0.00 0.00 0.00 96 1017.2
20260906120748 8 325 0.0 0.0 0.00 0.00 0.00 96 1017.2
20260906120245 8 331 0.0 0.0 0.00 0.00 0.00 96 1017.2
20260906115741 8 166 0.0 0.0 0.00 0.00 0.00 96 1017.4
20260906115236 8 166 0.0 0.0 0.00 0.00 0.00 95 1017.2
20260906114734 8 166 0.0 0.0 0.00 0.00 0.00 95 1017.4
20260906114230 8 166 0.0 0.0 0.00 0.00 0.00 95 1017.4
20260906113725 8 166 0.0 0.0 0.00 0.00 0.00 95 1017.2
20260906113224 9 166 0.0 0.0 0.00 0.00 0.00 95 1017.5
20260906112724 9 166 0.0 0.0 0.00 0.00 0.00 95 1017.4
20260906112221 8 166 0.0 0.0 0.00 0.00 0.00 95 1017.5
20260906111721 9 183 0.0 0.0 0.00 0.00 0.00 95 1017.5
20260906111215 9 183 0.0 0.0 0.00 0.00 0.00 95 1017.6
20260906110710 9 38 0.0 0.0 0.00 0.00 0.00 95 1017.5
20260906110206 10 261 0.0 0.0 0.00 0.00 0.00 95 1017.5
20260906105705 9 260 0.0 0.0 0.00 0.00 0.00 95 1017.6
20260906105202 10 261 0.0 0.0 0.00 0.00 0.00 95 1017.7
20260906104701 10 261 0.0 0.0 0.00 0.00 0.00 95 1017.5
20260906104201 9 261 0.0 0.0 0.00 0.00 0.00 95 1017.4
20260906103658 9 261 0.0 0.0 0.00 0.00 0.00 95 1017.6
20260906103153 10 261 0.0 0.0 0.00 0.00 0.00 95 1017.6
20260906102649 9 261 0.0 0.0 0.00 0.00 0.00 95 1017.4
20260906102148 9 321 0.0 0.0 0.00 0.00 0.00 94 1017.5
20260906101648 9 321 0.0 0.0 0.00 0.00 0.00 94 1017.5
20260906101142 9 321 0.0 0.0 0.00 0.00 0.00 94 1017.7
20260906100638 9 320 0.0 0.0 0.00 0.00 0.00 94 1017.5
20260906100134 10 321 0.0 0.0 0.00 0.00 0.00 94 1017.5
20260906095634 10 320 0.0 0.0 0.00 0.00 0.00 93 1017.5
20260906095129 10 320 0.0 0.0 0.00 0.00 0.00 93 1017.7
20260906094627 10 321 0.0 0.0 0.00 0.00 0.00 93 1017.5
20260906094124 10 320 0.0 0.0 0.00 0.00 0.00 93 1017.5
20260906093620 10 321 0.0 0.0 0.00 0.00 0.00 93 1017.6
20260906093120 10 321 0.0 0.0 0.00 0.00 0.00 92 1017.4
20260906092615 10 321 0.0 0.0 0.00 0.00 0.00 92 1017.5
20260906092110 10 321 0.0 0.0 0.00 0.00 0.00 92 1017.6
20260906091606 10 324 0.0 0.0 0.00 0.00 0.00 91 1017.4
20260906091102 10 337 0.0 0.0 0.00 0.00 0.00 91 1017.6
20260906090557 10 337 0.0 0.0 0.00 0.00 0.00 90 1017.7
20260906090056 11 337 0.0 0.0 0.00 0.00 0.00 90 1017.7
20260906085555 11 337 0.0 0.0 0.00 0.00 0.00 90 1017.8
20260906085051 11 86 0.0 0.0 0.00 0.00 0.00 90 1017.6
20260906084545 11 186 0.0 0.0 0.00 0.00 0.00 90 1017.8
20260906084044 11 259 0.0 0.0 0.00 0.00 0.00 90 1017.7
20260906083540 11 259 0.0 0.0 0.00 0.00 0.00 90 1017.5
20260906083039 11 219 0.0 0.0 0.00 0.00 0.00 90 1017.5
20260906082535 11 128 0.0 0.0 0.00 0.00 0.00 90 1017.6
20260906082030 11 155 0.0 0.0 0.00 0.00 0.00 91 1017.7
20260906081526 11 142 0.0 0.0 0.00 0.00 0.00 90 1017.5
20260906081021 11 143 0.0 0.0 0.00 0.00 0.00 90 1017.7
20260906080518 11 155 0.0 0.0 0.00 0.00 0.00 90 1017.5
20260906080014 11 155 0.0 0.0 0.00 0.00 0.00 90 1017.6
20260906075513 11 155 0.0 0.0 0.00 0.00 0.00 90 1017.6
20260906075008 11 155 0.0 0.0 0.00 0.00 0.00 90 1017.6
20260906074503 11 155 0.0 0.0 0.00 0.00 0.00 90 1017.5
20260906074001 11 269 0.0 0.0 0.00 0.00 0.00 89 1017.5
20260906073455 11 269 0.0 0.0 0.00 0.00 0.00 89 1017.5
20260906072952 11 301 0.0 0.0 0.00 0.00 0.00 89 1017.5
20260906072447 11 301 0.0 0.0 0.00 0.00 0.00 89 1017.5
20260906071943 11 305 0.0 0.0 0.00 0.00 0.00 89 1017.5
20260906071439 11 318 0.0 0.0 0.00 0.00 0.00 89 1017.5
20260906070935 11 159 0.0 0.0 0.00 0.00 0.00 89 1017.6
20260906070430 11 199 0.0 0.0 0.00 0.00 0.00 88 1017.6
20260906065926 11 216 0.0 0.0 0.00 0.00 0.00 87 1017.3
20260906065420 11 209 0.0 0.0 0.00 0.00 0.00 87 1017.5
20260906064916 11 252 0.0 0.0 0.00 0.00 0.00 88 1017.5
20260906064412 11 143 0.0 0.0 0.00 0.00 0.00 87 1017.5
20260906063912 11 141 0.0 0.0 0.00 0.00 0.00 87 1017.3
20260906063407 12 141 0.0 0.0 0.00 0.00 0.00 87 1017.4
20260906062902 12 251 0.0 0.0 0.00 0.00 0.00 87 1017.4
20260906062401 12 251 0.0 0.0 0.00 0.00 0.00 86 1017.5
20260906061857 12 252 0.0 0.0 0.00 0.00 0.00 86 1017.4
20260906061354 12 20 0.0 0.0 0.00 0.00 0.00 86 1017.3
20260906060848 12 319 0.0 0.0 0.00 0.00 0.00 86 1017.2
20260906060346 12 131 0.0 0.0 0.00 0.00 0.00 84 1017.2
20260906055841 12 185 0.0 0.0 0.00 0.00 0.00 83 1017.3
20260906055337 12 267 0.0 0.0 0.00 0.00 0.00 83 1017.2
20260906054832 12 347 0.0 0.0 0.00 0.00 0.00 83 1017.0
20260906054327 12 172 0.0 0.0 0.00 0.00 0.00 83 1017.3
20260906053823 13 292 0.0 0.0 0.00 0.00 0.00 82 1017.1
20260906053319 13 38 0.0 0.0 0.00 0.00 0.00 82 1017.2
20260906052814 13 241 0.0 0.0 0.00 0.00 0.00 83 1017.1
20260906052310 13 156 0.0 0.0 0.00 0.00 0.00 84 1017.1
20260906051807 13 71 0.0 0.0 0.00 0.00 0.00 84 1017.1
20260906051306 13 157 0.0 0.0 0.00 0.00 0.00 84 1017.2
20260906050802 13 244 0.0 0.0 0.00 0.00 0.00 82 1017.0
20260906050257 13 101 0.0 0.0 0.00 0.00 0.00 81 1017.1
20260906045756 13 116 0.0 0.0 0.00 0.00 0.00 79 1016.9
20260906045250 14 159 0.0 0.0 0.00 0.00 0.00 78 1017.2
20260906044747 14 6 0.0 0.0 0.00 0.00 0.00 77 1017.1
20260906044241 15 332 0.0 0.0 0.00 0.00 0.00 77 1017.2
20260906043737 15 194 0.0 0.0 0.00 0.00 0.00 77 1017.1
20260906043233 15 95 0.0 0.0 0.00 0.00 0.00 75 1016.9
20260906042733 15 198 0.0 0.0 0.00 0.00 0.00 75 1017.0
20260906042231 15 233 0.0 0.0 0.00 0.00 0.00 74 1017.0
20260906041727 15 268 0.0 0.0 0.00 0.00 0.00 74 1017.1
20260906041222 15 74 0.0 0.0 0.00 0.00 0.00 73 1017.1
20260906040718 15 116 0.0 0.0 0.00 0.00 0.00 73 1017.1
20260906040213 15 230 0.0 0.0 0.00 0.00 0.00 73 1016.9
20260906035709 15 42 0.0 0.0 0.00 0.00 0.00 75 1017.1
20260906035205 15 227 0.0 0.0 0.00 0.00 0.00 73 1017.1
20260906034704 15 184 0.0 0.0 0.00 0.00 0.00 72 1017.0
20260906034159 15 117 0.0 0.0 0.00 0.00 0.00 72 1017.0
20260906033655 16 81 0.0 0.0 0.00 0.00 0.00 71 1017.1
20260906033156 16 98 0.0 0.0 0.00 0.00 0.00 71 1016.8
20260906032652 15 280 0.0 0.0 0.00 0.00 0.00 72 1016.9
20260906032152 16 63 0.0 0.0 0.00 0.00 0.00 71 1016.9
20260906031647 16 108 0.0 0.0 0.00 0.00 0.00 70 1016.9
20260906031142 16 208 0.0 0.0 0.00 0.00 0.00 72 1016.8
20260906030642 16 72 0.0 0.0 0.00 0.00 0.00 70 1016.9
20260906030137 16 302 0.0 0.0 0.00 0.00 0.00 69 1017.1
20260906025636 17 70 0.0 0.0 0.00 0.00 0.00 68 1017.0
20260906025136 17 308 0.0 0.0 0.00 0.00 0.00 66 1016.8
20260906024630 17 192 0.0 0.0 0.00 0.00 0.00 67 1016.9
20260906024124 17 272 0.0 0.0 0.00 0.00 0.00 66 1016.7
20260906023621 17 123 0.0 0.0 0.00 0.00 0.00 64 1016.7
20260906023120 17 151 0.0 0.0 0.00 0.00 0.00 62 1016.8
20260906022615 18 74 0.0 0.0 0.00 0.00 0.00 63 1016.7
20260906022111 18 288 0.0 0.0 0.00 0.00 0.00 61 1016.9
20260906021607 18 194 0.0 0.0 0.00 0.00 0.00 64 1016.9
20260906021106 18 106 0.0 0.0 0.00 0.00 0.00 63 1016.8
20260906020605 18 331 0.0 0.0 0.00 0.00 0.00 62 1016.8
20260906020100 18 318 0.0 0.0 0.00 0.00 0.00 60 1016.7
20260906015559 18 152 0.0 0.0 0.00 0.00 0.00 59 1016.7
20260906015059 18 287 0.0 0.0 0.00 0.00 0.00 60 1017.0
20260906014554 18 177 0.0 0.0 0.00 0.00 0.00 59 1016.8
20260906014050 19 158 0.0 0.0 0.00 0.00 0.00 58 1016.7
20260906013544 19 88 0.0 0.0 0.00 0.00 0.00 55 1016.8
20260906013040 20 45 0.0 0.0 0.00 0.00 0.00 54 1016.7
20260906012535 20 104 0.0 0.0 0.00 0.00 0.00 54 1016.8
20260906012034 20 104 0.0 0.0 0.00 0.00 0.00 51 1016.7
20260906011531 20 114 0.0 1.6 0.00 0.00 0.00 50 1016.7
20260906011031 20 104 0.0 0.0 0.00 0.00 0.00 49 1016.5
20260906010526 21 197 0.0 0.0 0.00 0.00 0.00 48 1016.7
20260906010022 21 241 0.0 0.0 0.00 0.00 0.00 48 1016.6
20260906005521 21 337 0.0 0.0 0.00 0.00 0.00 46 1016.6
20260906005021 21 83 0.0 0.0 0.00 0.00 0.00 44 1016.9
20260906004520 22 70 0.0 0.0 0.00 0.00 0.00 46 1016.7
20260906004015 22 45 0.0 0.0 0.00 0.00 0.00 42 1016.6
20260906003510 22 357 0.0 0.0 0.00 0.00 0.00 41 1016.7
20260906003006 22 73 0.0 0.0 0.00 0.00 0.00 44 1016.6
20260906002501 22 262 0.0 0.0 0.00 0.00 0.00 41 1016.6
20260906001956 22 247 0.0 0.0 0.00 0.00 0.00 42 1016.7
20260906001452 22 351 0.0 0.0 0.00 0.00 0.00 41 1016.7
20260906000946 22 266 0.0 0.0 0.00 0.00 0.00 40 1016.8
20260906000441 22 83 0.0 0.0 0.00 0.00 0.00 44 1016.9
20260905235936 22 245 0.0 0.0 0.00 0.00 0.00 42 1017.0
20260905235435 22 92 0.0 0.0 0.00 0.00 0.00 40 1016.8
20260905234931 22 8 0.0 0.0 0.00 0.00 0.00 42 1016.9
20260905234427 22 314 0.0 0.0 0.00 0.00 0.00 40 1017.0
20260905233926 22 87 0.0 0.0 0.00 0.00 0.00 44 1016.9
20260905233422 22 30 0.0 1.6 0.00 0.00 0.00 40 1016.9
20260905232920 22 293 0.0 0.0 0.00 0.00 0.00 41 1016.9
20260905232417 22 86 0.0 0.0 0.00 0.00 0.00 41 1017.1